Year,Month,Day,Hour,Minute,Value (Times are PST for windspeed in km/hr)
2008,12,26,00,00,0.00
2008,12,26,00,01,0.00
2008,12,26,00,02,0.00
2008,12,26,00,03,0.00
2008,12,26,00,04,0.00
2008,12,26,00,05,0.00
2008,12,26,00,06,0.00
2008,12,26,00,07,0.00
2008,12,26,00,08,0.00
2008,12,26,00,09,0.00
2008,12,26,00,10,0.00
2008,12,26,00,11,0.00
2008,12,26,00,12,0.00
2008,12,26,00,13,0.00
2008,12,26,00,14,0.00
2008,12,26,00,15,0.00
2008,12,26,00,16,0.00
2008,12,26,00,17,0.00
2008,12,26,00,18,0.00
2008,12,26,00,19,0.10
2008,12,26,00,20,0.80
2008,12,26,00,21,2.50
2008,12,26,00,22,1.00
2008,12,26,00,23,0.30
2008,12,26,00,24,0.60
2008,12,26,00,25,1.10
2008,12,26,00,26,0.10
2008,12,26,00,27,0.00
2008,12,26,00,28,0.00
2008,12,26,00,29,0.00
2008,12,26,00,30,0.00
2008,12,26,00,31,1.00
2008,12,26,00,32,2.90
2008,12,26,00,33,3.70
2008,12,26,00,34,4.20
2008,12,26,00,35,3.30
2008,12,26,00,36,2.20
2008,12,26,00,37,1.00
2008,12,26,00,38,0.10
2008,12,26,00,39,0.00
2008,12,26,00,40,0.40
2008,12,26,00,41,0.00
2008,12,26,00,42,0.00
2008,12,26,00,43,0.00
2008,12,26,00,44,0.10
2008,12,26,00,45,0.00
2008,12,26,00,46,0.40
2008,12,26,00,47,0.00
2008,12,26,00,48,0.00
2008,12,26,00,49,0.00
2008,12,26,00,50,0.00
2008,12,26,00,51,0.10
2008,12,26,00,52,0.00
2008,12,26,00,53,0.00
2008,12,26,00,54,0.50
2008,12,26,00,55,1.70
2008,12,26,00,56,1.00
2008,12,26,00,57,0.20
2008,12,26,00,58,0.00
2008,12,26,00,59,0.00
2008,12,26,01,00,0.00
2008,12,26,01,01,0.00
2008,12,26,01,02,0.00
2008,12,26,01,03,0.00
2008,12,26,01,04,0.00
2008,12,26,01,05,0.00
2008,12,26,01,06,0.00
2008,12,26,01,07,0.00
2008,12,26,01,08,0.00
2008,12,26,01,09,0.00
2008,12,26,01,10,2.00
2008,12,26,01,11,1.40
2008,12,26,01,12,0.00
2008,12,26,01,13,0.10
2008,12,26,01,14,0.00
2008,12,26,01,15,0.10
2008,12,26,01,16,0.00
2008,12,26,01,17,0.00
2008,12,26,01,18,1.30
2008,12,26,01,19,0.60
2008,12,26,01,20,0.20
2008,12,26,01,21,0.10
2008,12,26,01,22,0.00
2008,12,26,01,23,0.00
2008,12,26,01,24,0.30
2008,12,26,01,25,0.50
2008,12,26,01,26,1.50
2008,12,26,01,27,1.50
2008,12,26,01,28,1.10
2008,12,26,01,29,0.70
2008,12,26,01,30,1.60
2008,12,26,01,31,1.50
2008,12,26,01,32,1.60
2008,12,26,01,33,0.90
2008,12,26,01,34,1.00
2008,12,26,01,35,1.00
2008,12,26,01,36,0.30
2008,12,26,01,37,0.10
2008,12,26,01,38,0.00
2008,12,26,01,39,0.00
2008,12,26,01,40,0.00
2008,12,26,01,41,0.00
2008,12,26,01,42,2.10
2008,12,26,01,43,3.50
2008,12,26,01,44,2.60
2008,12,26,01,45,3.30
2008,12,26,01,46,0.60
2008,12,26,01,47,1.60
2008,12,26,01,48,0.20
2008,12,26,01,49,0.00
2008,12,26,01,50,0.60
2008,12,26,01,51,0.70
2008,12,26,01,52,1.10
2008,12,26,01,53,0.40
2008,12,26,01,54,1.50
2008,12,26,01,55,1.10
2008,12,26,01,56,0.10
2008,12,26,01,57,0.20
2008,12,26,01,58,0.60
2008,12,26,01,59,0.20
2008,12,26,02,00,0.70
2008,12,26,02,01,0.30
2008,12,26,02,02,0.30
2008,12,26,02,03,0.00
2008,12,26,02,04,0.00
2008,12,26,02,05,0.00
2008,12,26,02,06,0.10
2008,12,26,02,07,0.00
2008,12,26,02,08,0.00
2008,12,26,02,09,0.00
2008,12,26,02,10,0.00
2008,12,26,02,11,0.00
2008,12,26,02,12,0.00
2008,12,26,02,13,0.00
2008,12,26,02,14,0.00
2008,12,26,02,15,0.00
2008,12,26,02,16,0.00
2008,12,26,02,17,0.10
2008,12,26,02,18,0.00
2008,12,26,02,19,0.00
2008,12,26,02,20,2.60
2008,12,26,02,21,2.90
2008,12,26,02,22,1.90
2008,12,26,02,23,1.50
2008,12,26,02,24,0.40
2008,12,26,02,25,0.20
2008,12,26,02,26,0.00
2008,12,26,02,27,0.00
2008,12,26,02,28,0.00
2008,12,26,02,29,0.00
2008,12,26,02,30,0.00
2008,12,26,02,31,0.00
2008,12,26,02,32,0.00
2008,12,26,02,33,0.00
2008,12,26,02,34,0.00
2008,12,26,02,35,1.10
2008,12,26,02,36,2.30
2008,12,26,02,37,1.60
2008,12,26,02,38,2.60
2008,12,26,02,39,2.60
2008,12,26,02,40,1.50
2008,12,26,02,41,0.20
2008,12,26,02,42,0.00
2008,12,26,02,43,2.10
2008,12,26,02,44,3.40
2008,12,26,02,45,3.20
2008,12,26,02,46,1.60
2008,12,26,02,47,2.10
2008,12,26,02,48,1.00
2008,12,26,02,49,1.00
2008,12,26,02,50,1.60
2008,12,26,02,51,1.90
2008,12,26,02,52,1.90
2008,12,26,02,53,1.40
2008,12,26,02,54,3.40
2008,12,26,02,55,3.10
2008,12,26,02,56,4.30
2008,12,26,02,57,4.70
2008,12,26,02,58,4.10
2008,12,26,02,59,2.20
2008,12,26,03,00,4.10
2008,12,26,03,01,3.80
2008,12,26,03,02,1.80
2008,12,26,03,03,2.20
2008,12,26,03,04,0.90
2008,12,26,03,05,0.50
2008,12,26,03,06,0.80
2008,12,26,03,07,1.00
2008,12,26,03,08,2.00
2008,12,26,03,09,0.80
2008,12,26,03,10,2.70
2008,12,26,03,11,3.80
2008,12,26,03,12,2.70
2008,12,26,03,13,0.60
2008,12,26,03,14,0.00
2008,12,26,03,15,0.30
2008,12,26,03,16,0.10
2008,12,26,03,17,3.10
2008,12,26,03,18,0.50
2008,12,26,03,19,1.20
2008,12,26,03,20,0.50
2008,12,26,03,21,0.50
2008,12,26,03,22,2.60
2008,12,26,03,23,1.40
2008,12,26,03,24,2.60
2008,12,26,03,25,2.60
2008,12,26,03,26,1.90
2008,12,26,03,27,2.20
2008,12,26,03,28,3.20
2008,12,26,03,29,4.00
2008,12,26,03,30,3.40
2008,12,26,03,31,3.00
2008,12,26,03,32,1.70
2008,12,26,03,33,3.90
2008,12,26,03,34,2.60
2008,12,26,03,35,3.60
2008,12,26,03,36,2.00
2008,12,26,03,37,1.30
2008,12,26,03,38,0.70
2008,12,26,03,39,0.00
2008,12,26,03,40,0.00
2008,12,26,03,41,0.00
2008,12,26,03,42,0.00
2008,12,26,03,43,0.30
2008,12,26,03,44,0.60
2008,12,26,03,45,0.20
2008,12,26,03,46,0.10
2008,12,26,03,47,0.40
2008,12,26,03,48,1.00
2008,12,26,03,49,0.00
2008,12,26,03,50,1.40
2008,12,26,03,51,2.70
2008,12,26,03,52,0.90
2008,12,26,03,53,0.40
2008,12,26,03,54,0.30
2008,12,26,03,55,0.30
2008,12,26,03,56,0.20
2008,12,26,03,57,2.10
2008,12,26,03,58,3.30
2008,12,26,03,59,3.60
2008,12,26,04,00,2.60
2008,12,26,04,01,3.50
2008,12,26,04,02,3.00
2008,12,26,04,03,0.30
2008,12,26,04,04,0.20
2008,12,26,04,05,2.20
2008,12,26,04,06,1.20
2008,12,26,04,07,0.00
2008,12,26,04,08,0.20
2008,12,26,04,09,1.20
2008,12,26,04,10,0.50
2008,12,26,04,11,0.90
2008,12,26,04,12,2.10
2008,12,26,04,13,3.00
2008,12,26,04,14,2.80
2008,12,26,04,15,0.60
2008,12,26,04,16,2.60
2008,12,26,04,17,1.30
2008,12,26,04,18,2.10
2008,12,26,04,19,1.70
2008,12,26,04,20,2.50
2008,12,26,04,21,3.00
2008,12,26,04,22,3.10
2008,12,26,04,23,1.90
2008,12,26,04,24,0.90
2008,12,26,04,25,4.00
2008,12,26,04,26,2.30
2008,12,26,04,27,2.50
2008,12,26,04,28,3.50
2008,12,26,04,29,5.30
2008,12,26,04,30,3.40
2008,12,26,04,31,3.20
2008,12,26,04,32,2.30
2008,12,26,04,33,3.60
2008,12,26,04,34,4.30
2008,12,26,04,35,4.40
2008,12,26,04,36,4.30
2008,12,26,04,37,2.80
2008,12,26,04,38,3.80
2008,12,26,04,39,4.00
2008,12,26,04,40,4.70
2008,12,26,04,41,4.10
2008,12,26,04,42,3.70
2008,12,26,04,43,2.60
2008,12,26,04,44,0.80
2008,12,26,04,45,3.40
2008,12,26,04,46,2.80
2008,12,26,04,47,1.40
2008,12,26,04,48,3.30
2008,12,26,04,49,0.50
2008,12,26,04,50,0.10
2008,12,26,04,51,3.00
2008,12,26,04,52,3.60
2008,12,26,04,53,3.90
2008,12,26,04,54,4.60
2008,12,26,04,55,4.00
2008,12,26,04,56,1.40
2008,12,26,04,57,2.50
2008,12,26,04,58,6.00
2008,12,26,04,59,4.80
2008,12,26,05,00,3.70
2008,12,26,05,01,3.70
2008,12,26,05,02,3.90
2008,12,26,05,03,2.60
2008,12,26,05,04,1.00
2008,12,26,05,05,4.60
2008,12,26,05,06,2.80
2008,12,26,05,07,1.90
2008,12,26,05,08,0.90
2008,12,26,05,09,1.80
2008,12,26,05,10,0.30
2008,12,26,05,11,1.80
2008,12,26,05,12,3.10
2008,12,26,05,13,3.00
2008,12,26,05,14,1.20
2008,12,26,05,15,1.00
2008,12,26,05,16,3.50
2008,12,26,05,17,3.30
2008,12,26,05,18,2.60
2008,12,26,05,19,1.50
2008,12,26,05,20,0.90
2008,12,26,05,21,0.50
2008,12,26,05,22,1.60
2008,12,26,05,23,1.40
2008,12,26,05,24,0.20
2008,12,26,05,25,1.10
2008,12,26,05,26,2.60
2008,12,26,05,27,0.90
2008,12,26,05,28,2.70
2008,12,26,05,29,1.50
2008,12,26,05,30,0.20
2008,12,26,05,31,0.00
2008,12,26,05,32,0.30
2008,12,26,05,33,1.10
2008,12,26,05,34,1.50
2008,12,26,05,35,1.40
2008,12,26,05,36,1.80
2008,12,26,05,37,1.80
2008,12,26,05,38,2.70
2008,12,26,05,39,4.00
2008,12,26,05,40,1.80
2008,12,26,05,41,2.00
2008,12,26,05,42,3.70
2008,12,26,05,43,3.50
2008,12,26,05,44,2.90
2008,12,26,05,45,2.10
2008,12,26,05,46,2.90
2008,12,26,05,47,3.40
2008,12,26,05,48,3.60
2008,12,26,05,49,4.30
2008,12,26,05,50,3.20
2008,12,26,05,51,3.20
2008,12,26,05,52,4.30
2008,12,26,05,53,4.70
2008,12,26,05,54,5.10
2008,12,26,05,55,4.00
2008,12,26,05,56,3.50
2008,12,26,05,57,2.10
2008,12,26,05,58,5.20
2008,12,26,05,59,3.60
2008,12,26,06,00,1.90
2008,12,26,06,01,1.10
2008,12,26,06,02,0.00
2008,12,26,06,03,0.00
2008,12,26,06,04,0.00
2008,12,26,06,05,0.00
2008,12,26,06,06,0.00
2008,12,26,06,07,0.20
2008,12,26,06,08,1.40
2008,12,26,06,09,0.00
2008,12,26,06,10,0.00
2008,12,26,06,11,0.00
2008,12,26,06,12,0.00
2008,12,26,06,13,0.80
2008,12,26,06,14,0.20
2008,12,26,06,15,0.00
2008,12,26,06,16,0.00
2008,12,26,06,17,0.00
2008,12,26,06,18,0.00
2008,12,26,06,19,0.00
2008,12,26,06,20,0.30
2008,12,26,06,21,1.50
2008,12,26,06,22,1.40
2008,12,26,06,23,0.30
2008,12,26,06,24,0.00
2008,12,26,06,25,0.10
2008,12,26,06,26,1.80
2008,12,26,06,27,1.70
2008,12,26,06,28,0.00
2008,12,26,06,29,0.00
2008,12,26,06,30,0.00
2008,12,26,06,31,0.00
2008,12,26,06,32,0.00
2008,12,26,06,33,0.00
2008,12,26,06,34,0.00
2008,12,26,06,35,0.00
2008,12,26,06,36,0.00
2008,12,26,06,37,0.00
2008,12,26,06,38,0.00
2008,12,26,06,39,0.20
2008,12,26,06,40,0.30
2008,12,26,06,41,0.00
2008,12,26,06,42,0.00
2008,12,26,06,43,0.00
2008,12,26,06,44,0.10
2008,12,26,06,45,1.50
2008,12,26,06,46,1.60
2008,12,26,06,47,2.90
2008,12,26,06,48,3.50
2008,12,26,06,49,2.50
2008,12,26,06,50,2.50
2008,12,26,06,51,1.40
2008,12,26,06,52,0.00
2008,12,26,06,53,0.00
2008,12,26,06,54,0.00
2008,12,26,06,55,0.10
2008,12,26,06,56,0.50
2008,12,26,06,57,2.30
2008,12,26,06,58,2.20
2008,12,26,06,59,2.60
2008,12,26,07,00,2.50
2008,12,26,07,01,2.50
2008,12,26,07,02,3.40
2008,12,26,07,03,3.10
2008,12,26,07,04,3.30
2008,12,26,07,05,2.70
2008,12,26,07,06,3.00
2008,12,26,07,07,1.40
2008,12,26,07,08,1.40
2008,12,26,07,09,2.20
2008,12,26,07,10,1.20
2008,12,26,07,11,1.20
2008,12,26,07,12,0.30
2008,12,26,07,13,0.70
2008,12,26,07,14,0.90
2008,12,26,07,15,1.90
2008,12,26,07,16,3.00
2008,12,26,07,17,1.90
2008,12,26,07,18,1.50
2008,12,26,07,19,1.30
2008,12,26,07,20,1.10
2008,12,26,07,21,0.30
2008,12,26,07,22,0.90
2008,12,26,07,23,0.50
2008,12,26,07,24,0.30
2008,12,26,07,25,0.50
2008,12,26,07,26,0.50
2008,12,26,07,27,0.90
2008,12,26,07,28,3.30
2008,12,26,07,29,3.20
2008,12,26,07,30,3.20
2008,12,26,07,31,0.70
2008,12,26,07,32,0.00
2008,12,26,07,33,0.60
2008,12,26,07,34,1.90
2008,12,26,07,35,2.60
2008,12,26,07,36,3.10
2008,12,26,07,37,3.30
2008,12,26,07,38,3.20
2008,12,26,07,39,3.30
2008,12,26,07,40,2.50
2008,12,26,07,41,1.40
2008,12,26,07,42,2.20
2008,12,26,07,43,2.60
2008,12,26,07,44,1.30
2008,12,26,07,45,0.20
2008,12,26,07,46,0.00
2008,12,26,07,47,0.60
2008,12,26,07,48,0.30
2008,12,26,07,49,0.80
2008,12,26,07,50,0.00
2008,12,26,07,51,0.10
2008,12,26,07,52,0.00
2008,12,26,07,53,1.80
2008,12,26,07,54,2.80
2008,12,26,07,55,3.00
2008,12,26,07,56,2.40
2008,12,26,07,57,0.40
2008,12,26,07,58,0.00
2008,12,26,07,59,0.00
2008,12,26,08,00,0.00
2008,12,26,08,01,0.00
2008,12,26,08,02,0.00
2008,12,26,08,03,0.10
2008,12,26,08,04,0.80
2008,12,26,08,05,3.10
2008,12,26,08,06,2.30
2008,12,26,08,07,2.60
2008,12,26,08,08,1.90
2008,12,26,08,09,2.90
2008,12,26,08,10,1.90
2008,12,26,08,11,1.90
2008,12,26,08,12,2.20
2008,12,26,08,13,1.20
2008,12,26,08,14,0.90
2008,12,26,08,15,0.60
2008,12,26,08,16,0.00
2008,12,26,08,17,0.00
2008,12,26,08,18,0.10
2008,12,26,08,19,0.20
2008,12,26,08,20,1.10
2008,12,26,08,21,0.20
2008,12,26,08,22,0.00
2008,12,26,08,23,0.90
2008,12,26,08,24,1.00
2008,12,26,08,25,0.50
2008,12,26,08,26,0.60
2008,12,26,08,27,0.50
2008,12,26,08,28,0.30
2008,12,26,08,29,1.40
2008,12,26,08,30,1.30
2008,12,26,08,31,1.10
2008,12,26,08,32,1.30
2008,12,26,08,33,0.30
2008,12,26,08,34,2.00
2008,12,26,08,35,2.40
2008,12,26,08,36,3.20
2008,12,26,08,37,3.10
2008,12,26,08,38,2.40
2008,12,26,08,39,1.30
2008,12,26,08,40,1.00
2008,12,26,08,41,1.70
2008,12,26,08,42,1.40
2008,12,26,08,43,0.20
2008,12,26,08,44,0.10
2008,12,26,08,45,1.10
2008,12,26,08,46,1.90
2008,12,26,08,47,1.80
2008,12,26,08,48,1.90
2008,12,26,08,49,1.00
2008,12,26,08,50,1.50
2008,12,26,08,51,2.70
2008,12,26,08,52,1.10
2008,12,26,08,53,0.00
2008,12,26,08,54,0.10
2008,12,26,08,55,0.00
2008,12,26,08,56,0.00
2008,12,26,08,57,0.00
2008,12,26,08,58,0.00
2008,12,26,08,59,0.00
2008,12,26,09,00,0.00
2008,12,26,09,01,0.00
2008,12,26,09,02,0.00
2008,12,26,09,03,0.40
2008,12,26,09,04,0.10
2008,12,26,09,05,0.80
2008,12,26,09,06,0.80
2008,12,26,09,07,0.30
2008,12,26,09,08,1.20
2008,12,26,09,09,2.30
2008,12,26,09,10,3.10
2008,12,26,09,11,1.20
2008,12,26,09,12,2.20
2008,12,26,09,13,0.60
2008,12,26,09,14,0.10
2008,12,26,09,15,0.10
2008,12,26,09,16,1.70
2008,12,26,09,17,0.90
2008,12,26,09,18,0.00
2008,12,26,09,19,0.00
2008,12,26,09,20,0.00
2008,12,26,09,21,0.30
2008,12,26,09,22,0.40
2008,12,26,09,23,0.00
2008,12,26,09,24,0.00
2008,12,26,09,25,0.00
2008,12,26,09,26,0.30
2008,12,26,09,27,0.10
2008,12,26,09,28,0.50
2008,12,26,09,29,0.60
2008,12,26,09,30,0.30
2008,12,26,09,31,0.10
2008,12,26,09,32,0.00
2008,12,26,09,33,0.00
2008,12,26,09,34,0.00
2008,12,26,09,35,0.00
2008,12,26,09,36,0.00
2008,12,26,09,37,0.00
2008,12,26,09,38,0.00
2008,12,26,09,39,0.00
2008,12,26,09,40,0.00
2008,12,26,09,41,0.00
2008,12,26,09,42,0.00
2008,12,26,09,43,0.00
2008,12,26,09,44,0.00
2008,12,26,09,45,0.00
2008,12,26,09,46,0.00
2008,12,26,09,47,0.00
2008,12,26,09,48,0.00
2008,12,26,09,49,0.00
2008,12,26,09,50,0.00
2008,12,26,09,51,0.00
2008,12,26,09,52,0.00
2008,12,26,09,53,0.00
2008,12,26,09,54,0.00
2008,12,26,09,55,0.00
2008,12,26,09,56,0.00
2008,12,26,09,57,0.00
2008,12,26,09,58,0.00
2008,12,26,09,59,0.00
2008,12,26,10,00,0.00
2008,12,26,10,01,0.00
2008,12,26,10,02,0.00
2008,12,26,10,03,0.00
2008,12,26,10,04,0.00
2008,12,26,10,05,0.00
2008,12,26,10,06,0.00
2008,12,26,10,07,0.00
2008,12,26,10,08,0.00
2008,12,26,10,09,1.80
2008,12,26,10,10,3.30
2008,12,26,10,11,2.60
2008,12,26,10,12,1.50
2008,12,26,10,13,1.00
2008,12,26,10,14,0.20
2008,12,26,10,15,0.10
2008,12,26,10,16,0.00
2008,12,26,10,17,0.00
2008,12,26,10,18,0.00
2008,12,26,10,19,0.00
2008,12,26,10,20,0.00
2008,12,26,10,21,0.00
2008,12,26,10,22,0.00
2008,12,26,10,23,0.00
2008,12,26,10,24,0.00
2008,12,26,10,25,0.00
2008,12,26,10,26,0.00
2008,12,26,10,27,0.00
2008,12,26,10,28,0.00
2008,12,26,10,29,0.10
2008,12,26,10,30,0.00
2008,12,26,10,31,0.50
2008,12,26,10,32,0.20
2008,12,26,10,33,0.40
2008,12,26,10,34,0.20
2008,12,26,10,35,0.00
2008,12,26,10,36,0.10
2008,12,26,10,37,1.50
2008,12,26,10,38,1.50
2008,12,26,10,39,0.30
2008,12,26,10,40,0.00
2008,12,26,10,41,0.00
2008,12,26,10,42,0.00
2008,12,26,10,43,0.00
2008,12,26,10,44,0.00
2008,12,26,10,45,0.40
2008,12,26,10,46,0.10
2008,12,26,10,47,1.90
2008,12,26,10,48,0.10
2008,12,26,10,49,0.00
2008,12,26,10,50,0.00
2008,12,26,10,51,0.00
2008,12,26,10,52,0.00
2008,12,26,10,53,0.00
2008,12,26,10,54,0.00
2008,12,26,10,55,0.00
2008,12,26,10,56,0.00
2008,12,26,10,57,0.00
2008,12,26,10,58,0.40
2008,12,26,10,59,0.20
2008,12,26,11,00,0.90
2008,12,26,11,01,0.00
2008,12,26,11,02,0.10
2008,12,26,11,03,0.00
2008,12,26,11,04,0.00
2008,12,26,11,05,0.00
2008,12,26,11,06,0.00
2008,12,26,11,07,0.00
2008,12,26,11,08,0.00
2008,12,26,11,09,0.00
2008,12,26,11,10,0.00
2008,12,26,11,11,0.00
2008,12,26,11,12,0.00
2008,12,26,11,13,0.00
2008,12,26,11,14,0.00
2008,12,26,11,15,0.00
2008,12,26,11,16,0.00
2008,12,26,11,17,0.00
2008,12,26,11,18,0.10
2008,12,26,11,19,0.00
2008,12,26,11,20,0.00
2008,12,26,11,21,0.00
2008,12,26,11,22,0.00
2008,12,26,11,23,0.00
2008,12,26,11,24,0.10
2008,12,26,11,25,0.20
2008,12,26,11,26,0.00
2008,12,26,11,27,0.00
2008,12,26,11,28,0.00
2008,12,26,11,29,0.00
2008,12,26,11,30,0.00
2008,12,26,11,31,0.00
2008,12,26,11,32,0.00
2008,12,26,11,33,0.00
2008,12,26,11,34,0.00
2008,12,26,11,35,0.00
2008,12,26,11,36,0.70
2008,12,26,11,37,1.60
2008,12,26,11,38,0.00
2008,12,26,11,39,0.00
2008,12,26,11,40,0.00
2008,12,26,11,41,0.20
2008,12,26,11,42,4.40
2008,12,26,11,43,2.70
2008,12,26,11,44,6.80
2008,12,26,11,45,2.60
2008,12,26,11,46,0.10
2008,12,26,11,47,0.00
2008,12,26,11,48,0.00
2008,12,26,11,49,0.00
2008,12,26,11,50,0.00
2008,12,26,11,51,0.10
2008,12,26,11,52,0.00
2008,12,26,11,53,3.70
2008,12,26,11,54,1.50
2008,12,26,11,55,0.10
2008,12,26,11,56,1.10
2008,12,26,11,57,1.40
2008,12,26,11,58,0.00
2008,12,26,11,59,2.70
2008,12,26,12,00,3.80
2008,12,26,12,01,3.00
2008,12,26,12,02,3.70
2008,12,26,12,03,0.90
2008,12,26,12,04,0.00
2008,12,26,12,05,0.00
2008,12,26,12,06,0.50
2008,12,26,12,07,1.00
2008,12,26,12,08,0.60
2008,12,26,12,09,2.40
2008,12,26,12,10,6.20
2008,12,26,12,11,4.30
2008,12,26,12,12,2.70
2008,12,26,12,13,3.00
2008,12,26,12,14,1.10
2008,12,26,12,15,1.80
2008,12,26,12,16,2.00
2008,12,26,12,17,2.30
2008,12,26,12,18,0.80
2008,12,26,12,19,0.00
2008,12,26,12,20,3.20
2008,12,26,12,21,6.30
2008,12,26,12,22,1.70
2008,12,26,12,23,4.30
2008,12,26,12,24,4.40
2008,12,26,12,25,1.90
2008,12,26,12,26,0.90
2008,12,26,12,27,4.10
2008,12,26,12,28,6.80
2008,12,26,12,29,4.20
2008,12,26,12,30,0.80
2008,12,26,12,31,1.20
2008,12,26,12,32,1.40
2008,12,26,12,33,2.90
2008,12,26,12,34,3.00
2008,12,26,12,35,3.60
2008,12,26,12,36,4.20
2008,12,26,12,37,8.20
2008,12,26,12,38,5.60
2008,12,26,12,39,2.70
2008,12,26,12,40,6.60
2008,12,26,12,41,5.20
2008,12,26,12,42,3.10
2008,12,26,12,43,3.60
2008,12,26,12,44,0.80
2008,12,26,12,45,0.80
2008,12,26,12,46,1.50
2008,12,26,12,47,2.50
2008,12,26,12,48,1.90
2008,12,26,12,49,1.60
2008,12,26,12,50,2.60
2008,12,26,12,51,0.30
2008,12,26,12,52,2.20
2008,12,26,12,53,1.80
2008,12,26,12,54,1.60
2008,12,26,12,55,2.30
2008,12,26,12,56,3.60
2008,12,26,12,57,7.70
2008,12,26,12,58,11.20
2008,12,26,12,59,5.30
2008,12,26,13,00,7.20
2008,12,26,13,01,5.00
2008,12,26,13,02,6.40
2008,12,26,13,03,7.10
2008,12,26,13,04,9.70
2008,12,26,13,05,8.50
2008,12,26,13,06,7.60
2008,12,26,13,07,7.10
2008,12,26,13,08,5.00
2008,12,26,13,09,5.00
2008,12,26,13,10,4.50
2008,12,26,13,11,6.40
2008,12,26,13,12,2.30
2008,12,26,13,13,5.10
2008,12,26,13,14,3.00
2008,12,26,13,15,6.60
2008,12,26,13,16,8.00
2008,12,26,13,17,7.50
2008,12,26,13,18,8.40
2008,12,26,13,19,7.30
2008,12,26,13,20,3.50
2008,12,26,13,21,4.00
2008,12,26,13,22,7.30
2008,12,26,13,23,10.20
2008,12,26,13,24,9.10
2008,12,26,13,25,4.70
2008,12,26,13,26,5.80
2008,12,26,13,27,7.40
2008,12,26,13,28,8.20
2008,12,26,13,29,7.00
2008,12,26,13,30,10.00
2008,12,26,13,31,9.70
2008,12,26,13,32,8.30
2008,12,26,13,33,7.10
2008,12,26,13,34,4.80
2008,12,26,13,35,5.10
2008,12,26,13,36,5.30
2008,12,26,13,37,4.10
2008,12,26,13,38,4.60
2008,12,26,13,39,8.10
2008,12,26,13,40,3.90
2008,12,26,13,41,0.80
2008,12,26,13,42,2.30
2008,12,26,13,43,10.10
2008,12,26,13,44,7.90
2008,12,26,13,45,5.10
2008,12,26,13,46,7.40
2008,12,26,13,47,8.60
2008,12,26,13,48,7.60
2008,12,26,13,49,9.50
2008,12,26,13,50,5.60
2008,12,26,13,51,6.60
2008,12,26,13,52,6.20
2008,12,26,13,53,7.40
2008,12,26,13,54,5.90
2008,12,26,13,55,3.70
2008,12,26,13,56,5.10
2008,12,26,13,57,1.90
2008,12,26,13,58,3.70
2008,12,26,13,59,5.50
2008,12,26,14,00,4.20
2008,12,26,14,01,10.70
2008,12,26,14,02,6.80
2008,12,26,14,03,4.70
2008,12,26,14,04,4.60
2008,12,26,14,05,1.60
2008,12,26,14,06,1.70
2008,12,26,14,07,9.90
2008,12,26,14,08,5.60
2008,12,26,14,09,2.10
2008,12,26,14,10,2.70
2008,12,26,14,11,3.20
2008,12,26,14,12,5.50
2008,12,26,14,13,3.30
2008,12,26,14,14,2.50
2008,12,26,14,15,3.60
2008,12,26,14,16,3.90
2008,12,26,14,17,0.50
2008,12,26,14,18,1.20
2008,12,26,14,19,5.60
2008,12,26,14,20,5.10
2008,12,26,14,21,6.00
2008,12,26,14,22,3.30
2008,12,26,14,23,5.90
2008,12,26,14,24,4.90
2008,12,26,14,25,3.20
2008,12,26,14,26,5.60
2008,12,26,14,27,9.30
2008,12,26,14,28,9.30
2008,12,26,14,29,5.10
2008,12,26,14,30,2.40
2008,12,26,14,31,5.10
2008,12,26,14,32,7.90
2008,12,26,14,33,6.40
2008,12,26,14,34,12.60
2008,12,26,14,35,7.90
2008,12,26,14,36,9.00
2008,12,26,14,37,3.30
2008,12,26,14,38,1.80
2008,12,26,14,39,5.00
2008,12,26,14,40,9.30
2008,12,26,14,41,8.10
2008,12,26,14,42,5.70
2008,12,26,14,43,5.30
2008,12,26,14,44,9.00
2008,12,26,14,45,5.10
2008,12,26,14,46,8.00
2008,12,26,14,47,10.10
2008,12,26,14,48,10.10
2008,12,26,14,49,7.30
2008,12,26,14,50,3.10
2008,12,26,14,51,5.40
2008,12,26,14,52,6.00
2008,12,26,14,53,2.40
2008,12,26,14,54,4.20
2008,12,26,14,55,5.60
2008,12,26,14,56,4.90
2008,12,26,14,57,2.80
2008,12,26,14,58,0.60
2008,12,26,14,59,3.90
2008,12,26,15,00,5.10
2008,12,26,15,01,8.70
2008,12,26,15,02,14.30
2008,12,26,15,03,9.80
2008,12,26,15,04,5.70
2008,12,26,15,05,4.70
2008,12,26,15,06,10.60
2008,12,26,15,07,7.80
2008,12,26,15,08,4.20
2008,12,26,15,09,4.20
2008,12,26,15,10,7.20
2008,12,26,15,11,9.00
2008,12,26,15,12,8.30
2008,12,26,15,13,5.20
2008,12,26,15,14,5.00
2008,12,26,15,15,4.60
2008,12,26,15,16,9.70
2008,12,26,15,17,7.40
2008,12,26,15,18,7.20
2008,12,26,15,19,8.80
2008,12,26,15,20,8.50
2008,12,26,15,21,6.80
2008,12,26,15,22,5.10
2008,12,26,15,23,5.30
2008,12,26,15,24,4.40
2008,12,26,15,25,4.90
2008,12,26,15,26,9.10
2008,12,26,15,27,11.40
2008,12,26,15,28,6.00
2008,12,26,15,29,1.90
2008,12,26,15,30,7.70
2008,12,26,15,31,8.10
2008,12,26,15,32,13.30
2008,12,26,15,33,9.60
2008,12,26,15,34,5.60
2008,12,26,15,35,2.80
2008,12,26,15,36,5.50
2008,12,26,15,37,8.90
2008,12,26,15,38,10.90
2008,12,26,15,39,8.70
2008,12,26,15,40,5.50
2008,12,26,15,41,10.30
2008,12,26,15,42,7.90
2008,12,26,15,43,8.60
2008,12,26,15,44,7.60
2008,12,26,15,45,4.30
2008,12,26,15,46,4.50
2008,12,26,15,47,4.30
2008,12,26,15,48,9.00
2008,12,26,15,49,5.40
2008,12,26,15,50,0.80
2008,12,26,15,51,9.70
2008,12,26,15,52,12.00
2008,12,26,15,53,10.00
2008,12,26,15,54,7.70
2008,12,26,15,55,6.80
2008,12,26,15,56,3.50
2008,12,26,15,57,2.10
2008,12,26,15,58,10.70
2008,12,26,15,59,9.20
2008,12,26,16,00,3.40
2008,12,26,16,01,3.10
2008,12,26,16,02,4.30
2008,12,26,16,03,2.50
2008,12,26,16,04,2.40
2008,12,26,16,05,0.70
2008,12,26,16,06,4.00
2008,12,26,16,07,2.80
2008,12,26,16,08,2.60
2008,12,26,16,09,5.40
2008,12,26,16,10,3.80
2008,12,26,16,11,6.80
2008,12,26,16,12,1.90
2008,12,26,16,13,3.40
2008,12,26,16,14,4.10
2008,12,26,16,15,1.20
2008,12,26,16,16,6.00
2008,12,26,16,17,2.80
2008,12,26,16,18,5.40
2008,12,26,16,19,3.90
2008,12,26,16,20,0.10
2008,12,26,16,21,1.40
2008,12,26,16,22,3.70
2008,12,26,16,23,5.60
2008,12,26,16,24,6.60
2008,12,26,16,25,1.80
2008,12,26,16,26,4.00
2008,12,26,16,27,2.40
2008,12,26,16,28,3.10
2008,12,26,16,29,4.30
2008,12,26,16,30,3.10
2008,12,26,16,31,0.60
2008,12,26,16,32,0.00
2008,12,26,16,33,2.20
2008,12,26,16,34,3.50
2008,12,26,16,35,1.50
2008,12,26,16,36,1.10
2008,12,26,16,37,1.40
2008,12,26,16,38,2.80
2008,12,26,16,39,2.80
2008,12,26,16,40,5.10
2008,12,26,16,41,5.50
2008,12,26,16,42,6.00
2008,12,26,16,43,2.60
2008,12,26,16,44,2.30
2008,12,26,16,45,1.40
2008,12,26,16,46,4.70
2008,12,26,16,47,6.80
2008,12,26,16,48,5.60
2008,12,26,16,49,6.70
2008,12,26,16,50,5.80
2008,12,26,16,51,7.30
2008,12,26,16,52,5.20
2008,12,26,16,53,4.60
2008,12,26,16,54,2.50
2008,12,26,16,55,2.80
2008,12,26,16,56,6.40
2008,12,26,16,57,6.20
2008,12,26,16,58,7.10
2008,12,26,16,59,8.00
2008,12,26,17,00,7.80
2008,12,26,17,01,7.60
2008,12,26,17,02,7.00
2008,12,26,17,03,4.00
2008,12,26,17,04,7.20
2008,12,26,17,05,7.90
2008,12,26,17,06,8.60
2008,12,26,17,07,7.10
2008,12,26,17,08,7.50
2008,12,26,17,09,8.40
2008,12,26,17,10,7.50
2008,12,26,17,11,6.50
2008,12,26,17,12,5.40
2008,12,26,17,13,5.80
2008,12,26,17,14,6.50
2008,12,26,17,15,8.30
2008,12,26,17,16,6.70
2008,12,26,17,17,5.50
2008,12,26,17,18,5.50
2008,12,26,17,19,7.00
2008,12,26,17,20,5.70
2008,12,26,17,21,6.10
2008,12,26,17,22,4.20
2008,12,26,17,23,5.40
2008,12,26,17,24,4.50
2008,12,26,17,25,6.20
2008,12,26,17,26,6.90
2008,12,26,17,27,6.80
2008,12,26,17,28,8.00
2008,12,26,17,29,6.00
2008,12,26,17,30,5.50
2008,12,26,17,31,8.10
2008,12,26,17,32,6.70
2008,12,26,17,33,7.50
2008,12,26,17,34,7.70
2008,12,26,17,35,8.30
2008,12,26,17,36,8.60
2008,12,26,17,37,7.40
2008,12,26,17,38,7.70
2008,12,26,17,39,6.00
2008,12,26,17,40,7.90
2008,12,26,17,41,6.80
2008,12,26,17,42,6.60
2008,12,26,17,43,7.50
2008,12,26,17,44,7.90
2008,12,26,17,45,6.30
2008,12,26,17,46,5.40
2008,12,26,17,47,5.90
2008,12,26,17,48,5.50
2008,12,26,17,49,5.50
2008,12,26,17,50,5.50
2008,12,26,17,51,7.10
2008,12,26,17,52,6.90
2008,12,26,17,53,6.10
2008,12,26,17,54,7.10
2008,12,26,17,55,5.10
2008,12,26,17,56,6.10
2008,12,26,17,57,5.60
2008,12,26,17,58,8.00
2008,12,26,17,59,10.10
2008,12,26,18,00,7.70
2008,12,26,18,01,6.70
2008,12,26,18,02,7.60
2008,12,26,18,03,8.90
2008,12,26,18,04,6.50
2008,12,26,18,05,4.10